ZHONGXING-11

Last updated on Thu Nov 21 2024 00:02:42 GMT+0000 (Coordinated Universal Time)

1 39157U 13020A 24325.50151267 -.00000289 00000+0 00000+0 0 9992 2 39157 0.0154 40.9255 0005045 250.7030 46.8480 1.00270367 42140
UTC large
Height (km)
Speed (km/s)
/
Latitude / Longitude
Inclination (degrees)
Orbital Period (minutes)
Azimuth
Elevation
Range (km)
Doppler Factor

Next 0 passes for location: London (51.5072 / 0.1276)

Sorry there are no passes over London.